| time (UTC) | temp F | wind direction | speed MPH | gust MPH | rain 1hr in | rain 24hr in | rain mn in | humidity % | barometer mb |
| 20260505130258 | 61 | 230 | 1.0 | 1.0 | 0.00 | 0.01 | 0.01 | 71 | 1008.0 |
| 20260505124748 | 61 | 272 | 1.0 | 1.0 | 0.00 | 0.01 | 0.01 | 72 | 1008.0 |
| 20260505124245 | 61 | 286 | 2.0 | 2.0 | 0.00 | 0.01 | 0.01 | 72 | 1008.0 |
| 20260505123740 | 61 | 281 | 3.0 | 3.0 | 0.00 | 0.01 | 0.01 | 72 | 1008.0 |
| 20260505123238 | 61 | 255 | 1.0 | 0.0 | 0.00 | 0.01 | 0.01 | 72 | 1007.8 |
| 20260505122734 | 61 | 15 | 1.0 | 1.0 | 0.00 | 0.01 | 0.01 | 72 | 1007.7 |
| 20260505122231 | 61 | 207 | 2.0 | 3.0 | 0.00 | 0.01 | 0.01 | 71 | 1007.4 |
| 20260505121728 | 61 | 226 | 3.0 | 3.0 | 0.00 | 0.01 | 0.01 | 71 | 1007.4 |
| 20260505121225 | 61 | 155 | 3.0 | 3.0 | 0.00 | 0.01 | 0.01 | 71 | 1007.4 |
| 20260505120721 | 61 | 224 | 2.0 | 2.0 | 0.00 | 0.01 | 0.01 | 70 | 1007.2 |
| 20260505120217 | 61 | 271 | 0.0 | 0.0 | 0.00 | 0.01 | 0.01 | 70 | 1007.3 |
| 20260505115715 | 60 | 23 | 2.0 | 2.0 | 0.00 | 0.01 | 0.01 | 71 | 1006.8 |
| 20260505115214 | 60 | 289 | 1.0 | 2.0 | 0.00 | 0.01 | 0.01 | 71 | 1006.6 |
| 20260505114711 | 60 | 155 | 0.0 | 0.0 | 0.00 | 0.01 | 0.01 | 71 | 1006.6 |
| 20260505114207 | 60 | 139 | 1.0 | 2.0 | 0.00 | 0.01 | 0.01 | 72 | 1006.4 |
| 20260505113703 | 59 | 183 | 2.0 | 2.0 | 0.00 | 0.01 | 0.01 | 73 | 1006.7 |
| 20260505113200 | 59 | 276 | 3.0 | 3.0 | 0.00 | 0.01 | 0.01 | 76 | 1006.7 |
| 20260505112656 | 59 | 114 | 1.0 | 1.0 | 0.00 | 0.01 | 0.01 | 77 | 1006.6 |
| 20260505112155 | 59 | 19 | 1.0 | 1.0 | 0.05 | 0.01 | 0.01 | 75 | 1006.7 |
| 20260505111654 | 60 | 182 | 3.0 | 3.0 | 0.05 | 0.01 | 0.01 | 73 | 1006.8 |
| 20260505111150 | 62 | 93 | 1.0 | 1.0 | 0.00 | 0.00 | 0.00 | 69 | 1006.7 |
| 20260505110646 | 63 | 288 | 5.0 | 6.0 | 0.00 | 0.00 | 0.00 | 64 | 1006.8 |
| 20260505110144 | 63 | 179 | 1.0 | 1.0 | 0.00 | 0.00 | 0.00 | 63 | 1006.9 |
| 20260505102119 | 64 | 67 | 2.0 | 2.0 | 0.00 | 0.00 | 0.00 | 61 | 1006.3 |
| 20260505101618 | 64 | 249 | 3.0 | 3.0 | 0.00 | 0.00 | 0.00 | 61 | 1006.3 |
| 20260505101114 | 64 | 178 | 1.0 | 2.0 | 0.00 | 0.00 | 0.00 | 62 | 1006.1 |
| 20260505100610 | 64 | 217 | 2.0 | 2.0 | 0.00 | 0.00 | 0.00 | 61 | 1005.9 |
| 20260505100107 | 64 | 248 | 1.0 | 2.0 | 0.00 | 0.00 | 0.00 | 61 | 1005.8 |
| 20260505095603 | 64 | 316 | 2.0 | 3.0 | 0.00 | 0.00 | 0.00 | 61 | 1005.9 |
| 20260505095100 | 64 | 88 | 0.0 | 0.0 | 0.00 | 0.00 | 0.00 | 59 | 1006.0 |
| 20260505094556 | 65 | 198 | 0.0 | 0.0 | 0.00 | 0.00 | 0.00 | 60 | 1005.8 |
| 20260505094052 | 65 | 210 | 2.0 | 1.0 | 0.00 | 0.00 | 0.00 | 59 | 1005.7 |
| 20260505093549 | 65 | 222 | 1.0 | 1.0 | 0.00 | 0.00 | 0.00 | 58 | 1005.7 |
| 20260505093047 | 65 | 244 | 4.0 | 5.0 | 0.00 | 0.00 | 0.00 | 57 | 1005.7 |
| 20260505092544 | 66 | 230 | 5.0 | 8.0 | 0.00 | 0.00 | 0.00 | 57 | 1005.3 |
| 20260505092042 | 66 | 258 | 5.0 | 7.0 | 0.00 | 0.00 | 0.00 | 57 | 1005.2 |
| 20260505091539 | 66 | 217 | 3.0 | 3.0 | 0.00 | 0.00 | 0.00 | 57 | 1005.6 |
| 20260505091037 | 66 | 264 | 3.0 | 3.0 | 0.00 | 0.00 | 0.00 | 56 | 1005.1 |
| 20260505090535 | 66 | 16 | 5.0 | 6.0 | 0.00 | 0.00 | 0.00 | 56 | 1005.1 |
| 20260505090032 | 66 | 200 | 3.0 | 5.0 | 0.00 | 0.00 | 0.00 | 56 | 1005.0 |
| 20260505085530 | 66 | 282 | 3.0 | 3.0 | 0.00 | 0.00 | 0.00 | 56 | 1005.1 |
| 20260505085028 | 66 | 6 | 3.0 | 3.0 | 0.00 | 0.00 | 0.00 | 56 | 1005.0 |
| 20260505084526 | 66 | 196 | 2.0 | 3.0 | 0.00 | 0.00 | 0.00 | 56 | 1005.1 |
| 20260505084024 | 66 | 285 | 2.0 | 3.0 | 0.00 | 0.00 | 0.00 | 56 | 1005.1 |
| 20260505083521 | 66 | 234 | 5.0 | 8.0 | 0.00 | 0.00 | 0.00 | 56 | 1005.3 |
| 20260505083017 | 65 | 336 | 4.0 | 5.0 | 0.00 | 0.00 | 0.00 | 57 | 1005.1 |
| 20260505082513 | 65 | 32 | 0.0 | 0.0 | 0.00 | 0.00 | 0.00 | 58 | 1005.3 |
| 20260505082010 | 66 | 198 | 1.0 | 1.0 | 0.00 | 0.00 | 0.00 | 58 | 1005.2 |
| 20260505081506 | 66 | 10 | 2.0 | 2.0 | 0.00 | 0.00 | 0.00 | 59 | 1005.3 |
| 20260505081003 | 65 | 157 | 1.0 | 2.0 | 0.00 | 0.00 | 0.00 | 59 | 1005.3 |
| 20260505080459 | 65 | 280 | 2.0 | 3.0 | 0.00 | 0.00 | 0.00 | 59 | 1005.3 |
| 20260505075955 | 66 | 182 | 1.0 | 1.0 | 0.00 | 0.00 | 0.00 | 59 | 1005.0 |
| 20260505075452 | 66 | 198 | 3.0 | 3.0 | 0.00 | 0.00 | 0.00 | 58 | 1005.0 |
| 20260505074949 | 65 | 181 | 4.0 | 6.0 | 0.00 | 0.00 | 0.00 | 58 | 1004.9 |
| 20260505074447 | 65 | 229 | 3.0 | 3.0 | 0.00 | 0.00 | 0.00 | 59 | 1004.9 |
| 20260505073944 | 65 | 282 | 3.0 | 3.0 | 0.00 | 0.00 | 0.00 | 61 | 1005.1 |
| 20260505073441 | 65 | 89 | 2.0 | 2.0 | 0.00 | 0.00 | 0.00 | 62 | 1004.6 |
| 20260505072938 | 66 | 147 | 3.0 | 3.0 | 0.00 | 0.00 | 0.00 | 60 | 1004.9 |
| 20260505072434 | 66 | 185 | 2.0 | 2.0 | 0.00 | 0.00 | 0.00 | 60 | 1004.8 |
| 20260505071930 | 66 | 54 | 1.0 | 1.0 | 0.00 | 0.00 | 0.00 | 59 | 1004.9 |
| 20260505071427 | 66 | 160 | 2.0 | 2.0 | 0.00 | 0.00 | 0.00 | 58 | 1004.7 |
| 20260505070925 | 66 | 188 | 2.0 | 2.0 | 0.00 | 0.00 | 0.00 | 58 | 1004.8 |
| 20260505070421 | 66 | 310 | 4.0 | 5.0 | 0.00 | 0.00 | 0.00 | 58 | 1004.7 |
| 20260505065917 | 66 | 226 | 4.0 | 6.0 | 0.00 | 0.00 | 0.00 | 58 | 1004.9 |
| 20260505065413 | 66 | 154 | 2.0 | 2.0 | 0.00 | 0.00 | 0.00 | 58 | 1004.9 |
| 20260505064910 | 66 | 148 | 2.0 | 2.0 | 0.00 | 0.00 | 0.00 | 59 | 1004.8 |
| 20260505064408 | 65 | 26 | 2.0 | 2.0 | 0.00 | 0.00 | 0.00 | 59 | 1004.9 |
| 20260505063906 | 65 | 175 | 1.0 | 2.0 | 0.00 | 0.00 | 0.00 | 60 | 1004.9 |
| 20260505063402 | 65 | 201 | 2.0 | 2.0 | 0.00 | 0.00 | 0.00 | 61 | 1004.8 |
| 20260505062859 | 65 | 229 | 4.0 | 6.0 | 0.00 | 0.00 | 0.00 | 61 | 1004.8 |
| 20260505062356 | 65 | 114 | 2.0 | 2.0 | 0.00 | 0.00 | 0.00 | 61 | 1004.9 |
| 20260505061852 | 65 | 149 | 1.0 | 2.0 | 0.00 | 0.00 | 0.00 | 61 | 1005.0 |
| 20260505061351 | 65 | 143 | 1.0 | 1.0 | 0.00 | 0.00 | 0.00 | 61 | 1005.1 |
| 20260505060848 | 65 | 177 | 2.0 | 2.0 | 0.00 | 0.00 | 0.00 | 61 | 1005.0 |
| 20260505060344 | 65 | 176 | 1.0 | 1.0 | 0.00 | 0.00 | 0.00 | 61 | 1005.2 |
| 20260505055840 | 65 | 156 | 1.0 | 1.0 | 0.00 | 0.00 | 0.00 | 61 | 1005.3 |
| 20260505055336 | 65 | 74 | 1.0 | 1.0 | 0.00 | 0.00 | 0.00 | 62 | 1005.3 |
| 20260505054834 | 65 | 106 | 3.0 | 3.0 | 0.00 | 0.00 | 0.00 | 61 | 1005.2 |
| 20260505054331 | 65 | 227 | 4.0 | 5.0 | 0.00 | 0.00 | 0.00 | 61 | 1005.4 |
| 20260505053829 | 65 | 177 | 4.0 | 5.0 | 0.00 | 0.00 | 0.00 | 61 | 1005.5 |
| 20260505053326 | 65 | 175 | 2.0 | 3.0 | 0.00 | 0.00 | 0.00 | 61 | 1005.5 |
| 20260505052823 | 65 | 156 | 0.0 | 1.0 | 0.00 | 0.00 | 0.00 | 61 | 1005.5 |
| 20260505052320 | 65 | 238 | 2.0 | 3.0 | 0.00 | 0.00 | 0.00 | 61 | 1005.6 |
| 20260505051817 | 65 | 170 | 3.0 | 3.0 | 0.00 | 0.00 | 0.00 | 62 | 1005.7 |
| 20260505051314 | 65 | 145 | 1.0 | 1.0 | 0.00 | 0.00 | 0.00 | 62 | 1005.5 |
| 20260505050812 | 65 | 168 | 3.0 | 3.0 | 0.00 | 0.00 | 0.00 | 62 | 1005.7 |
| 20260505050311 | 65 | 136 | 1.0 | 1.0 | 0.00 | 0.00 | 0.00 | 62 | 1005.6 |
| 20260505041740 | 65 | 171 | 0.0 | 1.0 | 0.00 | 0.00 | 0.00 | 61 | 1006.0 |
| 20260505041237 | 65 | 89 | 1.0 | 1.0 | 0.00 | 0.00 | 0.00 | 62 | 1006.1 |
| 20260505040735 | 65 | 207 | 2.0 | 5.0 | 0.00 | 0.00 | 0.00 | 62 | 1006.0 |
| 20260505040232 | 64 | 147 | 7.0 | 9.0 | 0.00 | 0.00 | 0.00 | 61 | 1005.9 |
| 20260505035729 | 64 | 212 | 1.0 | 2.0 | 0.00 | 0.00 | 0.00 | 62 | 1006.1 |
| 20260505035225 | 64 | 161 | 1.0 | 2.0 | 0.00 | 0.00 | 0.00 | 61 | 1005.9 |
| 20260505034722 | 64 | 165 | 6.0 | 7.0 | 0.00 | 0.00 | 0.00 | 61 | 1005.9 |
| 20260505034219 | 64 | 177 | 4.0 | 5.0 | 0.00 | 0.00 | 0.00 | 61 | 1006.0 |
| 20260505033715 | 64 | 64 | 2.0 | 2.0 | 0.00 | 0.00 | 0.00 | 61 | 1005.9 |
| 20260505033213 | 64 | 149 | 1.0 | 1.0 | 0.00 | 0.00 | 0.00 | 62 | 1006.1 |
| 20260505032711 | 64 | 126 | 3.0 | 3.0 | 0.00 | 0.00 | 0.00 | 62 | 1006.1 |
| 20260505032206 | 64 | 174 | 4.0 | 7.0 | 0.00 | 0.00 | 0.00 | 61 | 1006.2 |
| 20260505031704 | 64 | 131 | 4.0 | 5.0 | 0.00 | 0.00 | 0.00 | 61 | 1006.3 |
| 20260505031200 | 64 | 186 | 1.0 | 1.0 | 0.00 | 0.00 | 0.00 | 62 | 1006.4 |
| 20260505030657 | 65 | 155 | 2.0 | 2.0 | 0.00 | 0.00 | 0.00 | 60 | 1006.4 |
| 20260505030153 | 64 | 234 | 1.0 | 1.0 | 0.00 | 0.00 | 0.00 | 61 | 1006.3 |
| 20260505025649 | 65 | 183 | 4.0 | 5.0 | 0.00 | 0.00 | 0.00 | 60 | 1006.2 |
| 20260505025148 | 65 | 162 | 2.0 | 2.0 | 0.00 | 0.00 | 0.00 | 60 | 1006.3 |
| 20260505024645 | 65 | 154 | 1.0 | 3.0 | 0.00 | 0.00 | 0.00 | 60 | 1006.2 |
| 20260505024142 | 65 | 233 | 2.0 | 2.0 | 0.00 | 0.00 | 0.00 | 59 | 1006.0 |
| 20260505023640 | 65 | 145 | 2.0 | 3.0 | 0.00 | 0.00 | 0.00 | 59 | 1006.3 |
| 20260505023137 | 65 | 173 | 2.0 | 2.0 | 0.00 | 0.00 | 0.00 | 59 | 1006.0 |
| 20260505022634 | 66 | 174 | 2.0 | 2.0 | 0.00 | 0.00 | 0.00 | 58 | 1006.3 |
| 20260505022131 | 65 | 270 | 2.0 | 3.0 | 0.00 | 0.00 | 0.00 | 57 | 1006.2 |
| 20260505021628 | 65 | 159 | 5.0 | 6.0 | 0.00 | 0.00 | 0.00 | 57 | 1006.2 |
| 20260505021124 | 66 | 281 | 1.0 | 2.0 | 0.00 | 0.00 | 0.00 | 57 | 1006.3 |
| 20260505020620 | 66 | 213 | 4.0 | 9.0 | 0.00 | 0.00 | 0.00 | 57 | 1006.2 |
| 20260505020116 | 66 | 183 | 0.0 | 0.0 | 0.00 | 0.00 | 0.00 | 56 | 1006.7 |
| 20260505015614 | 66 | 183 | 2.0 | 2.0 | 0.00 | 0.00 | 0.00 | 55 | 1006.3 |
| 20260505015110 | 66 | 122 | 2.0 | 2.0 | 0.00 | 0.00 | 0.00 | 55 | 1006.7 |
| 20260505014607 | 67 | 156 | 0.0 | 0.0 | 0.00 | 0.00 | 0.00 | 54 | 1006.3 |
| 20260505014104 | 67 | 169 | 2.0 | 2.0 | 0.00 | 0.00 | 0.00 | 54 | 1006.3 |
| 20260505013601 | 67 | 76 | 1.0 | 1.0 | 0.00 | 0.00 | 0.00 | 53 | 1006.2 |
| 20260505013059 | 67 | 139 | 5.0 | 5.0 | 0.00 | 0.00 | 0.00 | 52 | 1006.2 |
| 20260505012556 | 67 | 157 | 3.0 | 5.0 | 0.00 | 0.00 | 0.00 | 52 | 1006.1 |
| 20260505012053 | 67 | 230 | 1.0 | 1.0 | 0.00 | 0.00 | 0.00 | 52 | 1006.3 |
| 20260505011549 | 68 | 171 | 3.0 | 5.0 | 0.00 | 0.00 | 0.00 | 52 | 1006.1 |
| 20260505011046 | 68 | 180 | 3.0 | 3.0 | 0.00 | 0.00 | 0.00 | 51 | 1006.1 |
| 20260505010542 | 68 | 186 | 2.0 | 2.0 | 0.00 | 0.00 | 0.00 | 51 | 1006.1 |
| 20260505010038 | 68 | 181 | 2.0 | 2.0 | 0.00 | 0.00 | 0.00 | 51 | 1005.8 |
| 20260505005534 | 68 | 182 | 1.0 | 1.0 | 0.00 | 0.00 | 0.00 | 52 | 1005.8 |
| 20260505005032 | 68 | 192 | 2.0 | 2.0 | 0.00 | 0.00 | 0.00 | 50 | 1005.7 |
| 20260505004529 | 68 | 192 | 1.0 | 1.0 | 0.00 | 0.00 | 0.00 | 49 | 1005.7 |
| 20260505004026 | 68 | 115 | 2.0 | 2.0 | 0.00 | 0.00 | 0.00 | 51 | 1005.6 |
| 20260505003523 | 68 | 118 | 2.0 | 2.0 | 0.00 | 0.00 | 0.00 | 51 | 1005.7 |
| 20260505003020 | 69 | 162 | 1.0 | 1.0 | 0.00 | 0.00 | 0.00 | 51 | 1005.6 |
| 20260505002515 | 69 | 123 | 0.0 | 0.0 | 0.00 | 0.00 | 0.00 | 50 | 1005.4 |
| 20260505002015 | 69 | 163 | 1.0 | 1.0 | 0.00 | 0.00 | 0.00 | 50 | 1005.5 |
| 20260505001511 | 69 | 172 | 1.0 | 3.0 | 0.00 | 0.00 | 0.00 | 49 | 1005.5 |
| 20260505001009 | 69 | 3 | 1.0 | 1.0 | 0.00 | 0.00 | 0.00 | 50 | 1005.4 |
| 20260505000506 | 69 | 160 | 1.0 | 1.0 | 0.00 | 0.00 | 0.00 | 49 | 1005.4 |
| 20260505000003 | 69 | 226 | 2.0 | 2.0 | 0.00 | 0.00 | 0.00 | 50 | 1005.2 |
| 20260504235500 | 70 | 189 | 1.0 | 1.0 | 0.00 | 0.00 | 0.00 | 50 | 1005.0 |
| 20260504234956 | 70 | 270 | 6.0 | 8.0 | 0.00 | 0.00 | 0.00 | 49 | 1004.9 |
| 20260504234454 | 70 | 133 | 3.0 | 3.0 | 0.00 | 0.00 | 0.00 | 48 | 1004.9 |
| 20260504233950 | 71 | 25 | 3.0 | 3.0 | 0.00 | 0.00 | 0.00 | 48 | 1005.0 |
| 20260504233446 | 71 | 214 | 5.0 | 7.0 | 0.00 | 0.00 | 0.00 | 48 | 1004.9 |
| 20260504232943 | 71 | 10 | 1.0 | 2.0 | 0.00 | 0.00 | 0.00 | 48 | 1004.7 |
| 20260504232440 | 72 | 165 | 4.0 | 5.0 | 0.00 | 0.00 | 0.00 | 47 | 1004.7 |
| 20260504231937 | 72 | 98 | 2.0 | 3.0 | 0.00 | 0.00 | 0.00 | 47 | 1004.6 |
| 20260504231433 | 72 | 229 | 4.0 | 5.0 | 0.00 | 0.00 | 0.00 | 45 | 1004.7 |
| 20260504230929 | 73 | 214 | 1.0 | 2.0 | 0.00 | 0.00 | 0.00 | 46 | 1004.9 |
| 20260504230426 | 72 | 261 | 1.0 | 1.0 | 0.00 | 0.00 | 0.00 | 46 | 1005.0 |
| 20260504225926 | 72 | 179 | 3.0 | 3.0 | 0.00 | 0.00 | 0.00 | 47 | 1005.2 |
| 20260504225422 | 72 | 179 | 4.0 | 5.0 | 0.00 | 0.00 | 0.00 | 49 | 1004.9 |
| 20260504224920 | 71 | 18 | 1.0 | 2.0 | 0.00 | 0.00 | 0.00 | 48 | 1005.1 |
| 20260504224416 | 71 | 164 | 2.0 | 2.0 | 0.00 | 0.00 | 0.00 | 49 | 1005.2 |
| 20260504223913 | 72 | 188 | 3.0 | 5.0 | 0.00 | 0.00 | 0.00 | 48 | 1005.3 |
| 20260504223408 | 72 | 259 | 2.0 | 2.0 | 0.00 | 0.00 | 0.00 | 49 | 1005.2 |
| 20260504222905 | 71 | 237 | 1.0 | 1.0 | 0.00 | 0.00 | 0.00 | 50 | 1005.1 |
| 20260504222402 | 71 | 145 | 4.0 | 7.0 | 0.00 | 0.00 | 0.00 | 49 | 1005.4 |
| 20260504221900 | 71 | 184 | 4.0 | 7.0 | 0.00 | 0.00 | 0.00 | 50 | 1005.5 |
| 20260504221356 | 71 | 245 | 3.0 | 5.0 | 0.00 | 0.00 | 0.00 | 49 | 1005.3 |
| 20260504220854 | 71 | 149 | 2.0 | 3.0 | 0.00 | 0.00 | 0.00 | 50 | 1005.3 |
| 20260504220350 | 71 | 155 | 1.0 | 2.0 | 0.00 | 0.00 | 0.00 | 53 | 1005.2 |
| 20260504215848 | 70 | 357 | 3.0 | 2.0 | 0.00 | 0.00 | 0.00 | 52 | 1005.3 |
| 20260504215344 | 70 | 204 | 3.0 | 5.0 | 0.00 | 0.00 | 0.00 | 52 | 1005.5 |
| 20260504214840 | 70 | 193 | 3.0 | 3.0 | 0.00 | 0.00 | 0.00 | 51 | 1005.3 |
| 20260504214337 | 71 | 291 | 2.0 | 3.0 | 0.00 | 0.00 | 0.00 | 49 | 1005.8 |
| 20260504213834 | 71 | 153 | 4.0 | 5.0 | 0.00 | 0.00 | 0.00 | 48 | 1005.4 |
| 20260504213330 | 71 | 190 | 4.0 | 5.0 | 0.00 | 0.00 | 0.00 | 48 | 1005.6 |
| 20260504212827 | 72 | 160 | 4.0 | 7.0 | 0.00 | 0.00 | 0.00 | 49 | 1005.6 |
| 20260504212323 | 73 | 96 | 0.0 | 0.0 | 0.00 | 0.00 | 0.00 | 47 | 1005.5 |
| 20260504211821 | 74 | 179 | 3.0 | 3.0 | 0.00 | 0.00 | 0.00 | 46 | 1005.6 |
| 20260504211317 | 73 | 109 | 3.0 | 3.0 | 0.00 | 0.00 | 0.00 | 45 | 1005.4 |
| 20260504210815 | 73 | 123 | 5.0 | 9.0 | 0.00 | 0.00 | 0.00 | 46 | 1005.7 |
| 20260504210312 | 74 | 264 | 4.0 | 5.0 | 0.00 | 0.00 | 0.00 | 45 | 1005.6 |
| 20260504205809 | 73 | 150 | 1.0 | 3.0 | 0.00 | 0.00 | 0.00 | 47 | 1005.6 |
| 20260504205306 | 72 | 1 | 3.0 | 7.0 | 0.00 | 0.00 | 0.00 | 46 | 1005.8 |
| 20260504204804 | 72 | 147 | 1.0 | 1.0 | 0.00 | 0.00 | 0.00 | 46 | 1006.0 |
| 20260504204303 | 73 | 189 | 3.0 | 6.0 | 0.00 | 0.00 | 0.00 | 45 | 1005.8 |
| 20260504203802 | 75 | 209 | 2.0 | 2.0 | 0.00 | 0.00 | 0.00 | 41 | 1006.0 |
| 20260504203258 | 74 | 104 | 2.0 | 2.0 | 0.00 | 0.00 | 0.00 | 43 | 1005.7 |
| 20260504202758 | 74 | 268 | 4.0 | 5.0 | 0.00 | 0.00 | 0.00 | 46 | 1005.9 |
| 20260504202256 | 74 | 188 | 3.0 | 5.0 | 0.00 | 0.00 | 0.00 | 42 | 1005.9 |
| 20260504201753 | 74 | 187 | 1.0 | 1.0 | 0.00 | 0.00 | 0.00 | 43 | 1006.1 |
| 20260504201250 | 74 | 238 | 2.0 | 2.0 | 0.00 | 0.00 | 0.00 | 41 | 1006.1 |
| 20260504200748 | 74 | 169 | 6.0 | 7.0 | 0.00 | 0.00 | 0.00 | 40 | 1005.9 |
| 20260504200243 | 75 | 208 | 5.0 | 7.0 | 0.00 | 0.00 | 0.00 | 43 | 1006.1 |
| 20260504195740 | 74 | 48 | 1.0 | 2.0 | 0.00 | 0.00 | 0.00 | 46 | 1006.2 |
| 20260504195236 | 73 | 216 | 1.0 | 2.0 | 0.00 | 0.00 | 0.00 | 41 | 1006.4 |
| 20260504194734 | 74 | 357 | 3.0 | 3.0 | 0.00 | 0.00 | 0.00 | 44 | 1006.3 |
| 20260504194229 | 74 | 310 | 3.0 | 5.0 | 0.00 | 0.00 | 0.00 | 42 | 1006.7 |
| 20260504193726 | 74 | 162 | 0.0 | 0.0 | 0.00 | 0.00 | 0.00 | 45 | 1006.6 |
| 20260504193223 | 75 | 260 | 5.0 | 7.0 | 0.00 | 0.00 | 0.00 | 43 | 1006.7 |
| 20260504192722 | 74 | 215 | 4.0 | 6.0 | 0.00 | 0.00 | 0.00 | 41 | 1006.7 |
| 20260504192220 | 73 | 331 | 4.0 | 7.0 | 0.00 | 0.00 | 0.00 | 42 | 1006.7 |
| 20260504191718 | 73 | 32 | 1.0 | 2.0 | 0.00 | 0.00 | 0.00 | 41 | 1006.9 |
| 20260504191215 | 74 | 170 | 7.0 | 8.0 | 0.00 | 0.00 | 0.00 | 42 | 1007.0 |
| 20260504190710 | 74 | 108 | 1.0 | 2.0 | 0.00 | 0.00 | 0.00 | 41 | 1006.7 |
| 20260504190206 | 73 | 152 | 3.0 | 3.0 | 0.00 | 0.00 | 0.00 | 47 | 1006.9 |
| 20260504185703 | 74 | 7 | 3.0 | 5.0 | 0.00 | 0.00 | 0.00 | 40 | 1007.0 |
| 20260504185159 | 73 | 74 | 3.0 | 3.0 | 0.00 | 0.00 | 0.00 | 46 | 1007.0 |
| 20260504184656 | 72 | 346 | 2.0 | 2.0 | 0.00 | 0.00 | 0.00 | 45 | 1007.4 |
| 20260504184151 | 72 | 314 | 4.0 | 7.0 | 0.00 | 0.00 | 0.00 | 46 | 1007.3 |
| 20260504183648 | 72 | 204 | 8.0 | 10.0 | 0.00 | 0.00 | 0.00 | 46 | 1007.4 |
| 20260504183145 | 72 | 285 | 1.0 | 2.0 | 0.00 | 0.00 | 0.00 | 44 | 1007.4 |
| 20260504182643 | 72 | 181 | 6.0 | 8.0 | 0.00 | 0.00 | 0.00 | 43 | 1007.3 |
| 20260504182140 | 71 | 97 | 8.0 | 11.0 | 0.00 | 0.00 | 0.00 | 42 | 1007.4 |
| 20260504181638 | 71 | 149 | 3.0 | 6.0 | 0.00 | 0.00 | 0.00 | 44 | 1007.5 |
| 20260504181135 | 71 | 187 | 6.0 | 10.0 | 0.00 | 0.00 | 0.00 | 44 | 1007.4 |
| 20260504180634 | 72 | 189 | 3.0 | 3.0 | 0.00 | 0.00 | 0.00 | 44 | 1007.6 |
| 20260504180132 | 71 | 93 | 2.0 | 2.0 | 0.00 | 0.00 | 0.00 | 44 | 1007.6 |
| 20260504175629 | 71 | 91 | 2.0 | 2.0 | 0.00 | 0.00 | 0.00 | 46 | 1007.7 |
| 20260504175126 | 71 | 224 | 5.0 | 7.0 | 0.00 | 0.00 | 0.00 | 44 | 1007.8 |
| 20260504174624 | 71 | 96 | 2.0 | 2.0 | 0.00 | 0.00 | 0.00 | 45 | 1007.6 |
| 20260504174120 | 71 | 163 | 1.0 | 1.0 | 0.00 | 0.00 | 0.00 | 47 | 1007.7 |
| 20260504173618 | 70 | 102 | 5.0 | 7.0 | 0.00 | 0.00 | 0.00 | 44 | 1007.8 |
| 20260504173115 | 70 | 178 | 1.0 | 1.0 | 0.00 | 0.00 | 0.00 | 45 | 1008.1 |
| 20260504172611 | 70 | 187 | 7.0 | 8.0 | 0.00 | 0.00 | 0.00 | 44 | 1007.9 |
| 20260504172108 | 70 | 186 | 5.0 | 7.0 | 0.00 | 0.00 | 0.00 | 45 | 1008.0 |
| 20260504171604 | 69 | 176 | 4.0 | 5.0 | 0.00 | 0.00 | 0.00 | 45 | 1008.1 |
| 20260504171102 | 70 | 206 | 5.0 | 7.0 | 0.00 | 0.00 | 0.00 | 45 | 1008.0 |
| 20260504170557 | 69 | 152 | 5.0 | 7.0 | 0.00 | 0.00 | 0.00 | 46 | 1008.2 |
| 20260504150941 | 66 | 116 | 3.0 | 5.0 | 0.00 | 0.00 | 0.00 | 48 | 1009.3 |
| 20260504150438 | 66 | 273 | 2.0 | 2.0 | 0.00 | 0.00 | 0.00 | 50 | 1009.2 |
| 20260504140904 | 63 | 158 | 0.0 | 0.0 | 0.00 | 0.00 | 0.00 | 48 | 1009.4 |
| 20260504140400 | 62 | 46 | 1.0 | 1.0 | 0.00 | 0.00 | 0.00 | 50 | 1009.5 |